| time (UTC) | temp C | wind direction | speed KPH | gust KPH | rain 1hr cm | rain 24hr cm | rain mn cm | humidity % | barometer mb |
| 20260504221637 | 25 | 113 | 1.6 | 6.4 | 0.00 | 0.43 | 0.43 | 61 | 1002.2 |
| 20260504220516 | 25 | 113 | 1.6 | 6.4 | 0.00 | 0.43 | 0.43 | 63 | 1002.2 |
| 20260504215536 | 24 | 113 | 3.2 | 8.0 | 0.00 | 0.43 | 0.43 | 63 | 1002.2 |
| 20260504214516 | 23 | 113 | 1.6 | 8.0 | 0.00 | 0.43 | 0.43 | 71 | 1002.1 |
| 20260504213516 | 22 | 0.0 | 3.2 | 0.00 | 0.43 | 0.43 | 76 | 1002.2 | |
| 20260504212516 | 22 | 113 | 1.6 | 4.8 | 0.00 | 0.43 | 0.43 | 76 | 1002.3 |
| 20260504211516 | 22 | 113 | 1.6 | 3.2 | 0.00 | 0.43 | 0.43 | 80 | 1002.6 |
| 20260504210515 | 21 | 0.0 | 0.0 | 0.00 | 0.43 | 0.43 | 80 | 1002.7 | |
| 20260504205516 | 21 | 113 | 1.6 | 6.4 | 0.00 | 0.43 | 0.43 | 78 | 1002.8 |
| 20260504204515 | 20 | 135 | 3.2 | 6.4 | 0.03 | 0.43 | 0.43 | 82 | 1002.9 |
| 20260504203535 | 19 | 158 | 3.2 | 8.0 | 0.03 | 0.43 | 0.43 | 85 | 1003.0 |
| 20260504202515 | 18 | 135 | 3.2 | 8.0 | 0.13 | 0.43 | 0.43 | 86 | 1003.1 |
| 20260504201515 | 18 | 0.0 | 3.2 | 0.23 | 0.43 | 0.43 | 87 | 1003.1 | |
| 20260504200515 | 17 | 158 | 1.6 | 6.4 | 0.43 | 0.43 | 0.43 | 87 | 1002.8 |
| 20260504195515 | 17 | 135 | 8.0 | 12.9 | 0.43 | 0.43 | 0.43 | 88 | 1002.1 |
| 20260504194555 | 17 | 0.0 | 4.8 | 0.41 | 0.41 | 0.41 | 91 | 1003.9 | |
| 20260504193516 | 17 | 158 | 1.6 | 6.4 | 0.41 | 0.41 | 0.41 | 89 | 1003.3 |
| 20260504192515 | 18 | 135 | 3.2 | 8.0 | 0.30 | 0.30 | 0.30 | 85 | 1003.7 |
| 20260504191536 | 19 | 0 | 3.2 | 11.3 | 0.20 | 0.20 | 0.20 | 78 | 1004.6 |
| 20260504190515 | 21 | 0 | 4.8 | 11.3 | 0.00 | 0.00 | 0.00 | 67 | 1004.3 |
| 20260504185555 | 22 | 0.0 | 1.6 | 0.00 | 0.00 | 0.00 | 62 | 1004.3 | |
| 20260504184515 | 22 | 0.0 | 3.2 | 0.00 | 0.00 | 0.00 | 60 | 1004.4 | |
| 20260504183515 | 22 | 0.0 | 3.2 | 0.00 | 0.00 | 0.00 | 58 | 1004.7 | |
| 20260504182515 | 22 | 0.0 | 3.2 | 0.00 | 0.00 | 0.00 | 58 | 1004.9 | |
| 20260504181515 | 22 | 158 | 1.6 | 6.4 | 0.00 | 0.00 | 0.00 | 60 | 1004.8 |
| 20260504180515 | 22 | 158 | 3.2 | 9.7 | 0.00 | 0.00 | 0.00 | 61 | 1004.5 |
| 20260504175515 | 21 | 90 | 3.2 | 8.0 | 0.00 | 0.00 | 0.00 | 61 | 1004.6 |
| 20260504174515 | 21 | 0.0 | 1.6 | 0.00 | 0.00 | 0.00 | 64 | 1004.8 | |
| 20260504173515 | 21 | 135 | 3.2 | 6.4 | 0.00 | 0.00 | 0.00 | 65 | 1004.8 |
| 20260504172515 | 20 | 113 | 3.2 | 8.0 | 0.00 | 0.00 | 0.00 | 70 | 1004.7 |
| 20260504171515 | 19 | 158 | 1.6 | 3.2 | 0.00 | 0.00 | 0.00 | 70 | 1005.2 |
| 20260504170515 | 19 | 0.0 | 0.0 | 0.00 | 0.00 | 0.00 | 69 | 1005.7 | |
| 20260504150515 | 21 | 0.0 | 3.2 | 0.00 | 0.00 | 0.00 | 61 | 1007.3 | |
| 20260504140515 | 19 | 113 | 1.6 | 6.4 | 0.00 | 0.00 | 0.00 | 68 | 1007.0 |
| 20260504130516 | 17 | 158 | 1.6 | 9.7 | 0.00 | 0.00 | 0.00 | 72 | 1007.7 |
| 20260504110516 | 14 | 0.0 | 0.0 | 0.00 | 0.00 | 0.00 | 79 | 1008.0 | |
| 20260504100516 | 15 | 0.0 | 3.2 | 0.00 | 0.00 | 0.00 | 79 | 1007.7 | |
| 20260504081516 | 15 | 0.0 | 1.6 | 0.00 | 0.00 | 0.00 | 76 | 1007.6 | |
| 20260504080516 | 15 | 0.0 | 0.0 | 0.00 | 0.00 | 0.00 | 76 | 1007.7 | |
| 20260504050515 | 18 | 113 | 1.6 | 4.8 | 0.00 | 0.00 | 0.00 | 61 | 1007.5 |
| 20260504045515 | 18 | 158 | 1.6 | 8.0 | 0.00 | 0.00 | 0.00 | 61 | 1007.7 |
| 20260504044515 | 18 | 0.0 | 3.2 | 0.00 | 0.00 | 0.00 | 59 | 1008.0 | |
| 20260504043515 | 18 | 158 | 1.6 | 4.8 | 0.00 | 0.00 | 0.00 | 58 | 1008.3 |
| 20260504042515 | 18 | 158 | 1.6 | 4.8 | 0.00 | 0.00 | 0.00 | 58 | 1008.5 |
| 20260504041515 | 18 | 135 | 1.6 | 4.8 | 0.00 | 0.00 | 0.00 | 57 | 1008.7 |
| 20260504040535 | 18 | 0.0 | 3.2 | 0.00 | 0.00 | 0.00 | 57 | 1008.8 | |
| 20260504035535 | 18 | 158 | 1.6 | 6.4 | 0.00 | 0.00 | 0.00 | 57 | 1008.9 |
| 20260504034515 | 18 | 180 | 1.6 | 3.2 | 0.00 | 0.00 | 0.00 | 57 | 1009.0 |
| 20260504033514 | 18 | 0.0 | 0.0 | 0.00 | 0.00 | 0.00 | 57 | 1009.1 | |
| 20260504032515 | 18 | 0.0 | 3.2 | 0.00 | 0.00 | 0.00 | 57 | 1009.0 | |
| 20260504031517 | 18 | 0.0 | 4.8 | 0.00 | 0.00 | 0.00 | 56 | 1008.9 | |
| 20260504030517 | 18 | 135 | 1.6 | 3.2 | 0.00 | 0.00 | 0.00 | 55 | 1008.9 |
| 20260504025517 | 19 | 135 | 1.6 | 4.8 | 0.00 | 0.00 | 0.00 | 55 | 1008.8 |
| 20260504024537 | 19 | 158 | 1.6 | 6.4 | 0.00 | 0.00 | 0.00 | 54 | 1008.8 |
| 20260504023516 | 20 | 135 | 1.6 | 6.4 | 0.00 | 0.00 | 0.00 | 53 | 1008.8 |
| 20260504022537 | 20 | 158 | 1.6 | 4.8 | 0.00 | 0.00 | 0.00 | 52 | 1008.8 |
| 20260504021516 | 20 | 158 | 1.6 | 3.2 | 0.00 | 0.00 | 0.00 | 52 | 1008.7 |
| 20260504020537 | 20 | 158 | 1.6 | 4.8 | 0.00 | 0.00 | 0.00 | 51 | 1008.6 |
| 20260504015537 | 20 | 135 | 1.6 | 4.8 | 0.00 | 0.00 | 0.00 | 50 | 1008.5 |
| 20260504014517 | 20 | 135 | 1.6 | 4.8 | 0.00 | 0.00 | 0.00 | 49 | 1008.4 |
| 20260504013516 | 21 | 135 | 1.6 | 3.2 | 0.00 | 0.00 | 0.00 | 48 | 1008.3 |
| 20260504012516 | 21 | 135 | 1.6 | 3.2 | 0.00 | 0.00 | 0.00 | 48 | 1008.3 |
| 20260504011517 | 21 | 158 | 1.6 | 3.2 | 0.00 | 0.00 | 0.00 | 47 | 1008.4 |
| 20260504010516 | 22 | 158 | 1.6 | 3.2 | 0.00 | 0.00 | 0.00 | 46 | 1008.3 |
| 20260504005516 | 22 | 0.0 | 3.2 | 0.00 | 0.00 | 0.00 | 43 | 1008.3 | |
| 20260504004516 | 22 | 0.0 | 0.0 | 0.00 | 0.00 | 0.00 | 43 | 1008.2 | |
| 20260504003516 | 23 | 0.0 | 1.6 | 0.00 | 0.00 | 0.00 | 43 | 1008.2 | |
| 20260504002516 | 23 | 0.0 | 3.2 | 0.00 | 0.00 | 0.00 | 41 | 1008.3 | |
| 20260504001536 | 24 | 0.0 | 3.2 | 0.00 | 0.00 | 0.00 | 39 | 1008.4 | |
| 20260504000536 | 25 | 0.0 | 6.4 | 0.00 | 0.00 | 0.00 | 38 | 1008.4 | |
| 20260503235516 | 25 | 203 | 1.6 | 8.0 | 0.00 | 0.00 | 0.00 | 37 | 1008.5 |
| 20260503234516 | 25 | 0.0 | 6.4 | 0.00 | 0.00 | 0.00 | 38 | 1008.5 | |
| 20260503233516 | 25 | 203 | 1.6 | 8.0 | 0.00 | 0.00 | 0.00 | 37 | 1008.6 |
| 20260503232516 | 25 | 180 | 1.6 | 4.8 | 0.00 | 0.00 | 0.00 | 35 | 1008.6 |
| 20260503231516 | 25 | 203 | 1.6 | 3.2 | 0.00 | 0.00 | 0.00 | 40 | 1008.6 |
| 20260503230516 | 25 | 293 | 1.6 | 6.4 | 0.00 | 0.00 | 0.00 | 36 | 1008.7 |
| 20260503225536 | 25 | 180 | 3.2 | 11.3 | 0.00 | 0.00 | 0.00 | 37 | 1008.8 |
| 20260503224516 | 25 | 158 | 3.2 | 9.7 | 0.00 | 0.00 | 0.00 | 33 | 1008.9 |
| 20260503223516 | 25 | 180 | 1.6 | 3.2 | 0.00 | 0.00 | 0.00 | 37 | 1008.9 |
| 20260503222516 | 25 | 135 | 1.6 | 4.8 | 0.00 | 0.00 | 0.00 | 37 | 1009.0 |